Regional Weather Roundup
Issued by NWS

Home | Current Version | Previous Version | Graphics & Text | Print | Product List | Glossary On
Versions: 1 2 3 4 5 6 7 8 9 10 11 12 13 14 15 16 17 18 19 20 21 22 23 24 25 26 27 28 29 30 31 32 33 34 35 36 37 38 39 40 41 42 43 44 45 46 47 48 49 50
000
ASUS43 KMKX 210310
RWRWI

WISCONSIN REGIONAL WEATHER ROUNDUP
NATIONAL WEATHER SERVICE MILWAUKEE/SULLIVAN WI
1000 PM CDT FRI APR 20 2018

NOTE: "FAIR" INDICATES FEW OR NO CLOUDS BELOW 12,000 FEET WITH NO
SIGNIFICANT WEATHER AND/OR OBSTRUCTIONS TO VISIBILITY.

WIZ001-002-006>008-014>016-023>028-210400-
NORTHWEST WISCONSIN

CITY           SKY/WX    TMP DP  RH WIND       PRES   REMARKS
SUPERIOR ARPT  FAIR      45  22  39 SW6       30.40R
ASHLAND        FAIR      39  18  42 CALM      30.41R
HAYWARD        FAIR      35  23  61 CALM      30.42R
SIREN          FAIR      34  21  58 CALM      30.43S
CUMBERLAND     FAIR      36  18  48 CALM      30.42S
RICE LAKE      FAIR      35  22  58 CALM      30.45R
CHETEK         FAIR      34  24  66 CALM      30.44R
LADYSMITH      FAIR      37  23  57 CALM      30.44S
EAU CLAIRE     FAIR      41  22  46 SW3       30.43R
MENOMONIE      FAIR      44  20  38 CALM      30.44R
NEW RICHMOND   FAIR      38  26  62 S3        30.44S
OSCEOLA        FAIR      36  27  72 CALM      30.46S
$$

WIZ003>005-009-010-017-018-210400-
NORTH CENTRAL WISCONSIN

CITY           SKY/WX    TMP DP  RH WIND       PRES   REMARKS
MANITOWISH WTR FAIR      34  21  58 CALM      30.39S
ARBOR VITAE    FAIR      37  18  44 CALM      30.40R
WOODRUFF       FAIR      37  18  44 CALM      30.40R
RHINELANDER    FAIR      39  17  41 W5        30.40F
EAGLE RIVER    FAIR      39  12  33 W6        30.39S WCI  35
LAND O LAKES   FAIR      31  19  60 CALM      30.41S
PHILLIPS       FAIR      34  22  63 CALM      30.41S
TOMAHAWK       FAIR      31  21  66 CALM      30.42S
MEDFORD        FAIR      32  22  65 CALM      30.41F
MERRILL          N/A     32  20  61 CALM      30.43S
$$

WIZ029-030-035-036-043>047-210400-
CENTRAL WISCONSIN

CITY           SKY/WX    TMP DP  RH WIND       PRES   REMARKS
WAUSAU         FAIR      37  20  50 CALM      30.41S
MOSINEE        CLEAR     43  12  28 CALM      30.43S
MARSHFIELD     FAIR      39  18  42 CALM      30.41S
STEVENS POINT  FAIR      31  17  56 SE3       30.44S
WAUPACA        FAIR      40  23  50 CALM      30.44S
WAUTOMA        FAIR      33  24  69 CALM      30.44S
WISC RAPIDS    FAIR      35  19  52 CALM      30.44S
CAMP DOUGLAS   FAIR      33  24  69 CALM      30.43S HAZE
$$

WIZ011>013-019>022-031-037>040-048>050-210400-
NORTHEAST WISCONSIN

CITY           SKY/WX    TMP DP  RH WIND       PRES   REMARKS
ANTIGO         FAIR      34  20  57 S5        30.42S WCI  30
SHAWANO        FAIR      41  20  42 SW3       30.42F
OCONTO         FAIR      34  19  54 CALM      30.43S
STURGEON BAY   FAIR      42  25  50 S7        30.44R
GREEN BAY      FAIR      37  24  59 CALM      30.44R
MANITOWOC      FAIR      36  29  75 CALM      30.45S
APPLETON       PTCLDY    43  14  31 SW8       30.42S
CLINTONVILLE   FAIR      40  19  43 CALM      30.43F
OSHKOSH        FAIR      41  19  41 SW6       30.43F
$$

WIZ032>034-041-042-053>061-210400-
SOUTHWEST WISCONSIN

CITY           SKY/WX    TMP DP  RH WIND       PRES   REMARKS
LA CROSSE      FAIR      43  31  62 CALM      30.43F
SPARTA         FAIR      33  21  62 CALM      30.45S
VIROQUA        FAIR      44  26  49 N3        30.43F
BOSCOBEL       FAIR      38  31  76 CALM      30.43S
PRAIRIE DU CHI FAIR      43  32  65 CALM      30.42S
PLATTEVILLE    FAIR      47  30  52 E5        30.42S
$$

WIZ056-057-062-063-064-067-068-210400-
SOUTH CENTRAL WISCONSIN

CITY           SKY/WX    TMP DP  RH WIND       PRES   REMARKS
REEDSBURG      FAIR      38  21  50 CALM      30.44R
BARABOO/DELLS  FAIR      37  19  49 CALM      30.43S
LONE ROCK      FAIR      39  32  76 CALM      30.43S
MINERAL POINT  FAIR      52  19  28 CALM      30.42S
MADISON        FAIR      36  28  73 CALM      30.44R
MIDDLETON      FAIR      40  32  74 CALM      30.44S
WATERTOWN      FAIR      37  23  56 CALM      30.44R
MONROE         FAIR      50  19  29 SW5       30.42S
JANESVILLE     FAIR      45  30  57 E3        30.44R
$$

WIZ051-052-058>065-066-070>072-210400-
SOUTHEAST WISCONSIN

CITY           SKY/WX    TMP DP  RH WIND       PRES   REMARKS
MILWAUKEE      FAIR      43  19  38 CALM      30.45S
WAUKESHA       FAIR      36  21  55 CALM      30.46R
MILWAUKEE/TIMM FAIR      39  19  45 CALM      30.46S
RACINE         FAIR      39  19  44 CALM      30.46F
BURLINGTON     FAIR      35  26  70 CALM      30.45R
KENOSHA        FAIR      41  14  33 CALM      30.45S
FOND DU LAC    FAIR      35  20  54 S5        30.44S WCI  31
SHEBOYGAN      FAIR      38  27  64 CALM      30.45R
WEST BEND      FAIR      36  23  60 CALM      30.45S
JUNEAU         FAIR      40  17  38 CALM      30.45S
$$

LSZ147-162-210400-
LAKE SUPERIOR

STATION/POSITION TIME  TEMP    WIND        PRES    WAVE
                       AIR SEA DIR/SP/G            HT/PER
                 (UTC) (F)     (DEG/KT/KT) (MB)    (FT/S)
DEVILS ISLAND    0300   45     130/  6/  6 1029.8S
SAXON HARBOR     0240   34     220/  3/  3 1028.4S
$$

LMZ867-665-643>646-210400-
LAKE MICHIGAN

STATION/POSITION TIME  TEMP    WIND        PRES    WAVE
                       AIR SEA DIR/SP/G            HT/PER
                 (UTC) (F)     (DEG/KT/KT) (MB)    (FT/S)
NORTHPORT PIER   0240   36                 1029.8F
KEWAUNEE LAKESHO 0242   42     280/  1/  3 1030.0R
SHEBOYGAN LAKESH 0300   43     230/  3/  4 1031.5R
PORT WASHINGTON  0240   38     260/  2/  2 1031.8S
MILWAUKEE LAKESH 0250   42      CALM  /  1   N/A
KENOSHA   LAKESH 0300   43                 1031.2
$$

TC  - TEMPERATURE IN CELSIUS
VSB - VISIBILITY IN STATUTE MILES
WCI - WIND CHILL INDEX
HX  - HEAT INDEX





USA.gov is the U.S. government's official web portal to all federal, state and local government web resources and services.